Zurück zum Katalog

FENGYUN 1C DEB

AktivSSO
NORAD 31516·DEBRIS·🇨🇳 China

Gestartet May 10, 1999 von Taiyuan Satellite Launch Center

Loading…

Nächste Überflüge (nächste 24 Stunden)

TLE

AktuellSource: Space-Track

Epoche: Sep 12, 2026, 19:18 UTC

1 31516U 99025BXF 26255.80438911  .00000659  00000-0  26370-3 0  9996
2 31516  98.8598  19.1969 0148611 164.3601 350.9411 14.25892804  3719

Verfolge FENGYUN 1C DEB in Echtzeit mit AllMySat

Download on the App Store